sat.trackr.live / text

‹ back to catalog

QIANFAN-128

NORAD 69074 · 2026-104B

PAYLOAD ACTIVE UNKNOWN

§ Identity

Operator
Country
PRC
Launch date
2026-05-12
Launch site
TAISC
Launch vehicle
Mass (kg)
RCS (m²)

External: N2YO · Heavens-Above · Gunter

§ Orbital elements

Epoch: 2026-05-25T03:16:40.778112Z

Period
101.55 min
Inclination
88.9869°
Eccentricity
0.0003250
Mean motion
14.18043170 rev/d
Perigee alt
829.6 km
Apogee alt
834.3 km
Semi-major
7,210.1 km
B*
3.2181e-5
RAAN
344.2580°
Arg perigee
160.4710°
Mean anomaly
199.6604°
Rev number
181

§ Raw data

QIANFAN-1281 69074U 26104B   26145.13658308  .00000080  00000+0  32181-4 0  99972 69074  88.9869 344.2580 0003250 160.4710 199.6604 14.18043170  1815

JSON: /api/v1/satellites/69074 · /tle

For live sub-satellite position, see the globe view (requires WebGL).

§ Visibility from observer

Set your observer location to see the next 7 days of passes ≥ 10°. The values pass through the URL so the page stays shareable.

No JS? Fill the form by hand. The geolocation button needs JavaScript.